owner,sensor,date,latitude,longitude,relative_humidity,qcFlag 
LUMCON,ioos:station:LUMCON:102:1,2015-01-01T00:45:00Z,29.1870,-90.6093,74.9,1111122 
LUMCON,ioos:station:LUMCON:102:1,2015-01-01T01:45:00Z,29.1870,-90.6093,74.3,1111122 
LUMCON,ioos:station:LUMCON:102:1,2015-01-01T02:45:00Z,29.1870,-90.6093,73.8,1111122 
LUMCON,ioos:station:LUMCON:102:1,2015-01-01T03:45:00Z,29.1870,-90.6093,71.3,1111122 
LUMCON,ioos:station:LUMCON:102:1,2015-01-01T04:45:00Z,29.1870,-90.6093,81.1,1111122 
LUMCON,ioos:station:LUMCON:102:1,2015-01-01T05:45:00Z,29.1870,-90.6093,84.5,1111122 
LUMCON,ioos:station:LUMCON:102:1,2015-01-01T06:45:00Z,29.1870,-90.6093,84.8,1111122 
LUMCON,ioos:station:LUMCON:102:1,2015-01-01T07:45:00Z,29.1870,-90.6093,87.3,1111122 
LUMCON,ioos:station:LUMCON:102:1,2015-01-01T08:45:00Z,29.1870,-90.6093,89.4,1111122 
LUMCON,ioos:station:LUMCON:102:1,2015-01-01T09:45:00Z,29.1870,-90.6093,89.7,1111122 
LUMCON,ioos:station:LUMCON:102:1,2015-01-01T10:45:00Z,29.1870,-90.6093,88.3,1111122 
LUMCON,ioos:station:LUMCON:102:1,2015-01-01T11:45:00Z,29.1870,-90.6093,88.2,1111122 
LUMCON,ioos:station:LUMCON:102:1,2015-01-01T12:45:00Z,29.1870,-90.6093,84.0,1111122 
LUMCON,ioos:station:LUMCON:102:1,2015-01-01T13:45:00Z,29.1870,-90.6093,84.8,1111122 
LUMCON,ioos:station:LUMCON:102:1,2015-01-01T14:45:00Z,29.1870,-90.6093,83.7,1111122 
LUMCON,ioos:station:LUMCON:102:1,2015-01-01T15:45:00Z,29.1870,-90.6093,84.7,1111122 
LUMCON,ioos:station:LUMCON:102:1,2015-01-01T16:45:00Z,29.1870,-90.6093,83.9,1111122 
LUMCON,ioos:station:LUMCON:102:1,2015-01-01T17:45:00Z,29.1870,-90.6093,84.8,1111122 
LUMCON,ioos:station:LUMCON:102:1,2015-01-01T18:45:00Z,29.1870,-90.6093,84.3,1111122 
LUMCON,ioos:station:LUMCON:102:1,2015-01-01T19:45:00Z,29.1870,-90.6093,85.8,1111122 
LUMCON,ioos:station:LUMCON:102:1,2015-01-01T20:45:00Z,29.1870,-90.6093,85.9,1111122 
LUMCON,ioos:station:LUMCON:102:1,2015-01-01T21:45:00Z,29.1870,-90.6093,85.4,1111122 
LUMCON,ioos:station:LUMCON:102:1,2015-01-01T22:45:00Z,29.1870,-90.6093,86.3,1111122 
LUMCON,ioos:station:LUMCON:102:1,2015-01-01T23:45:00Z,29.1870,-90.6093,90.8,1111122 
LUMCON,ioos:station:LUMCON:102:1,2015-01-02T00:45:00Z,29.1870,-90.6093,91.6,1111122 
LUMCON,ioos:station:LUMCON:102:1,2015-01-02T01:45:00Z,29.1870,-90.6093,91.9,1111122 
LUMCON,ioos:station:LUMCON:102:1,2015-01-02T02:45:00Z,29.1870,-90.6093,92.0,1111122 
LUMCON,ioos:station:LUMCON:102:1,2015-01-02T03:45:00Z,29.1870,-90.6093,90.2,1111122 
LUMCON,ioos:station:LUMCON:102:1,2015-01-02T04:45:00Z,29.1870,-90.6093,91.1,1111122 
LUMCON,ioos:station:LUMCON:102:1,2015-01-02T05:45:00Z,29.1870,-90.6093,90.3,1111122 
LUMCON,ioos:station:LUMCON:102:1,2015-01-02T06:45:00Z,29.1870,-90.6093,90.5,1111122 
LUMCON,ioos:station:LUMCON:102:1,2015-01-02T07:45:00Z,29.1870,-90.6093,91.3,1111122 
LUMCON,ioos:station:LUMCON:102:1,2015-01-02T08:45:00Z,29.1870,-90.6093,91.2,1111122 
LUMCON,ioos:station:LUMCON:102:1,2015-01-02T09:45:00Z,29.1870,-90.6093,91.2,1111122 
LUMCON,ioos:station:LUMCON:102:1,2015-01-02T10:45:00Z,29.1870,-90.6093,91.0,1111122 
LUMCON,ioos:station:LUMCON:102:1,2015-01-02T11:45:00Z,29.1870,-90.6093,91.2,1111122 
LUMCON,ioos:station:LUMCON:102:1,2015-01-02T12:45:00Z,29.1870,-90.6093,91.7,1111122 
LUMCON,ioos:station:LUMCON:102:1,2015-01-02T13:45:00Z,29.1870,-90.6093,92.2,1111122 
LUMCON,ioos:station:LUMCON:102:1,2015-01-02T14:45:00Z,29.1870,-90.6093,92.6,1111122 
LUMCON,ioos:station:LUMCON:102:1,2015-01-02T15:45:00Z,29.1870,-90.6093,92.5,1111122 
LUMCON,ioos:station:LUMCON:102:1,2015-01-02T16:45:00Z,29.1870,-90.6093,92.6,1111122 
LUMCON,ioos:station:LUMCON:102:1,2015-01-02T17:45:00Z,29.1870,-90.6093,92.0,1111122 
LUMCON,ioos:station:LUMCON:102:1,2015-01-02T18:45:00Z,29.1870,-90.6093,92.4,1111122 
LUMCON,ioos:station:LUMCON:102:1,2015-01-02T19:45:00Z,29.1870,-90.6093,92.6,1111122 
LUMCON,ioos:station:LUMCON:102:1,2015-01-02T20:45:00Z,29.1870,-90.6093,92.7,1111122 
LUMCON,ioos:station:LUMCON:102:1,2015-01-02T21:45:00Z,29.1870,-90.6093,92.2,1111122 
LUMCON,ioos:station:LUMCON:102:1,2015-01-02T22:45:00Z,29.1870,-90.6093,91.9,1111122 
LUMCON,ioos:station:LUMCON:102:1,2015-01-02T23:45:00Z,29.1870,-90.6093,92.0,1111122 
LUMCON,ioos:station:LUMCON:102:1,2015-01-03T00:45:00Z,29.1870,-90.6093,92.2,1111122 
LUMCON,ioos:station:LUMCON:102:1,2015-01-03T01:45:00Z,29.1870,-90.6093,91.4,1111122 
LUMCON,ioos:station:LUMCON:102:1,2015-01-03T02:45:00Z,29.1870,-90.6093,87.6,1111122 
LUMCON,ioos:station:LUMCON:102:1,2015-01-03T03:45:00Z,29.1870,-90.6093,91.5,1111122 
LUMCON,ioos:station:LUMCON:102:1,2015-01-03T04:45:00Z,29.1870,-90.6093,92.3,1111122 
LUMCON,ioos:station:LUMCON:102:1,2015-01-03T05:45:00Z,29.1870,-90.6093,92.4,1111122 
LUMCON,ioos:station:LUMCON:102:1,2015-01-03T06:45:00Z,29.1870,-90.6093,92.6,1111122 
LUMCON,ioos:station:LUMCON:102:1,2015-01-03T07:45:00Z,29.1870,-90.6093,92.7,1111122 
LUMCON,ioos:station:LUMCON:102:1,2015-01-03T08:45:00Z,29.1870,-90.6093,92.4,1111122 
LUMCON,ioos:station:LUMCON:102:1,2015-01-03T09:45:00Z,29.1870,-90.6093,91.2,1111122 
LUMCON,ioos:station:LUMCON:102:1,2015-01-03T10:45:00Z,29.1870,-90.6093,91.1,1111122 
LUMCON,ioos:station:LUMCON:102:1,2015-01-03T11:45:00Z,29.1870,-90.6093,90.8,1111122 
LUMCON,ioos:station:LUMCON:102:1,2015-01-03T12:45:00Z,29.1870,-90.6093,90.8,1111122 
LUMCON,ioos:station:LUMCON:102:1,2015-01-03T13:45:00Z,29.1870,-90.6093,90.4,1111122 
LUMCON,ioos:station:LUMCON:102:1,2015-01-03T14:45:00Z,29.1870,-90.6093,90.6,1111122 
LUMCON,ioos:station:LUMCON:102:1,2015-01-03T15:45:00Z,29.1870,-90.6093,90.7,1111122 
LUMCON,ioos:station:LUMCON:102:1,2015-01-03T16:45:00Z,29.1870,-90.6093,90.4,1111122 
LUMCON,ioos:station:LUMCON:102:1,2015-01-03T17:45:00Z,29.1870,-90.6093,89.8,1111122 
LUMCON,ioos:station:LUMCON:102:1,2015-01-03T18:45:00Z,29.1870,-90.6093,90.1,1111122 
LUMCON,ioos:station:LUMCON:102:1,2015-01-03T19:45:00Z,29.1870,-90.6093,90.3,1111122 
LUMCON,ioos:station:LUMCON:102:1,2015-01-03T20:45:00Z,29.1870,-90.6093,89.9,1111122 
LUMCON,ioos:station:LUMCON:102:1,2015-01-03T21:45:00Z,29.1870,-90.6093,89.9,1111122 
LUMCON,ioos:station:LUMCON:102:1,2015-01-03T23:45:00Z,29.1870,-90.6093,90.9,1111122 
LUMCON,ioos:station:LUMCON:102:1,2015-01-04T01:45:00Z,29.1870,-90.6093,89.4,1111122 
LUMCON,ioos:station:LUMCON:102:1,2015-01-04T02:45:00Z,29.1870,-90.6093,87.5,1111122 
LUMCON,ioos:station:LUMCON:102:1,2015-01-04T03:45:00Z,29.1870,-90.6093,88.2,1111122 
LUMCON,ioos:station:LUMCON:102:1,2015-01-04T04:45:00Z,29.1870,-90.6093,82.4,1111122 
LUMCON,ioos:station:LUMCON:102:1,2015-01-04T05:45:00Z,29.1870,-90.6093,85.5,1111122 
LUMCON,ioos:station:LUMCON:102:1,2015-01-04T06:45:00Z,29.1870,-90.6093,85.7,1111122 
LUMCON,ioos:station:LUMCON:102:1,2015-01-04T07:45:00Z,29.1870,-90.6093,75.7,1111122 
LUMCON,ioos:station:LUMCON:102:1,2015-01-04T08:45:00Z,29.1870,-90.6093,64.7,1111122 
LUMCON,ioos:station:LUMCON:102:1,2015-01-04T09:45:00Z,29.1870,-90.6093,62.3,1111122 
LUMCON,ioos:station:LUMCON:102:1,2015-01-04T10:45:00Z,29.1870,-90.6093,57.7,1111122 
LUMCON,ioos:station:LUMCON:102:1,2015-01-04T11:45:00Z,29.1870,-90.6093,57.4,1111122 
LUMCON,ioos:station:LUMCON:102:1,2015-01-04T12:45:00Z,29.1870,-90.6093,55.3,1111122 
LUMCON,ioos:station:LUMCON:102:1,2015-01-04T13:45:00Z,29.1870,-90.6093,53.5,1111122 
LUMCON,ioos:station:LUMCON:102:1,2015-01-04T14:45:00Z,29.1870,-90.6093,49.8,1111122 
LUMCON,ioos:station:LUMCON:102:1,2015-01-04T15:45:00Z,29.1870,-90.6093,54.8,1111122 
LUMCON,ioos:station:LUMCON:102:1,2015-01-04T16:45:00Z,29.1870,-90.6093,53.5,1111122 
LUMCON,ioos:station:LUMCON:102:1,2015-01-04T17:45:00Z,29.1870,-90.6093,54.6,1111122 
LUMCON,ioos:station:LUMCON:102:1,2015-01-04T18:45:00Z,29.1870,-90.6093,58.7,1111122 
LUMCON,ioos:station:LUMCON:102:1,2015-01-04T19:45:00Z,29.1870,-90.6093,67.9,1111122 
LUMCON,ioos:station:LUMCON:102:1,2015-01-04T20:45:00Z,29.1870,-90.6093,69.9,1111122 
LUMCON,ioos:station:LUMCON:102:1,2015-01-04T21:45:00Z,29.1870,-90.6093,65.2,1111122 
LUMCON,ioos:station:LUMCON:102:1,2015-01-04T22:45:00Z,29.1870,-90.6093,69.4,1111122 
LUMCON,ioos:station:LUMCON:102:1,2015-01-04T23:45:00Z,29.1870,-90.6093,63.5,1111122 
LUMCON,ioos:station:LUMCON:102:1,2015-01-05T00:45:00Z,29.1870,-90.6093,68.3,1111122 
LUMCON,ioos:station:LUMCON:102:1,2015-01-05T01:45:00Z,29.1870,-90.6093,74.2,1111122 
LUMCON,ioos:station:LUMCON:102:1,2015-01-05T02:45:00Z,29.1870,-90.6093,72.1,1111122 
LUMCON,ioos:station:LUMCON:102:1,2015-01-05T03:45:00Z,29.1870,-90.6093,66.1,1111122 
LUMCON,ioos:station:LUMCON:102:1,2015-01-05T04:45:00Z,29.1870,-90.6093,72.4,1111122 
LUMCON,ioos:station:LUMCON:102:1,2015-01-05T05:45:00Z,29.1870,-90.6093,74.3,1111122 
LUMCON,ioos:station:LUMCON:102:1,2015-01-05T06:45:00Z,29.1870,-90.6093,72.0,1111122 
LUMCON,ioos:station:LUMCON:102:1,2015-01-05T07:45:00Z,29.1870,-90.6093,70.4,1111122 
LUMCON,ioos:station:LUMCON:102:1,2015-01-05T08:45:00Z,29.1870,-90.6093,77.0,1111122 
LUMCON,ioos:station:LUMCON:102:1,2015-01-05T09:45:00Z,29.1870,-90.6093,76.9,1111122 
LUMCON,ioos:station:LUMCON:102:1,2015-01-05T10:45:00Z,29.1870,-90.6093,74.6,1111122 
LUMCON,ioos:station:LUMCON:102:1,2015-01-05T11:45:00Z,29.1870,-90.6093,72.1,1111122 
LUMCON,ioos:station:LUMCON:102:1,2015-01-05T12:45:00Z,29.1870,-90.6093,70.6,1111122 
LUMCON,ioos:station:LUMCON:102:1,2015-01-05T13:45:00Z,29.1870,-90.6093,62.9,1111122 
LUMCON,ioos:station:LUMCON:102:1,2015-01-05T14:45:00Z,29.1870,-90.6093,56.4,1111122 
LUMCON,ioos:station:LUMCON:102:1,2015-01-05T15:45:00Z,29.1870,-90.6093,63.6,1111122 
LUMCON,ioos:station:LUMCON:102:1,2015-01-05T16:45:00Z,29.1870,-90.6093,59.6,1111122 
LUMCON,ioos:station:LUMCON:102:1,2015-01-05T17:45:00Z,29.1870,-90.6093,57.6,1111122 
LUMCON,ioos:station:LUMCON:102:1,2015-01-05T18:45:00Z,29.1870,-90.6093,56.1,1111122 
LUMCON,ioos:station:LUMCON:102:1,2015-01-05T19:45:00Z,29.1870,-90.6093,56.2,1111122 
LUMCON,ioos:station:LUMCON:102:1,2015-01-05T20:45:00Z,29.1870,-90.6093,55.9,1111122 
LUMCON,ioos:station:LUMCON:102:1,2015-01-05T21:45:00Z,29.1870,-90.6093,58.7,1111122 
LUMCON,ioos:station:LUMCON:102:1,2015-01-05T22:45:00Z,29.1870,-90.6093,62.2,1111122 
LUMCON,ioos:station:LUMCON:102:1,2015-01-05T23:45:00Z,29.1870,-90.6093,57.9,1111122 
LUMCON,ioos:station:LUMCON:102:1,2015-01-06T00:45:00Z,29.1870,-90.6093,58.2,1111122 
LUMCON,ioos:station:LUMCON:102:1,2015-01-06T01:45:00Z,29.1870,-90.6093,61.3,1111122 
LUMCON,ioos:station:LUMCON:102:1,2015-01-06T02:45:00Z,29.1870,-90.6093,65.3,1111122 
LUMCON,ioos:station:LUMCON:102:1,2015-01-06T03:45:00Z,29.1870,-90.6093,69.8,1111122 
LUMCON,ioos:station:LUMCON:102:1,2015-01-06T04:45:00Z,29.1870,-90.6093,70.7,1111122 
LUMCON,ioos:station:LUMCON:102:1,2015-01-06T05:45:00Z,29.1870,-90.6093,68.6,1111122 
LUMCON,ioos:station:LUMCON:102:1,2015-01-06T06:45:00Z,29.1870,-90.6093,69.8,1111122 
LUMCON,ioos:station:LUMCON:102:1,2015-01-06T07:45:00Z,29.1870,-90.6093,70.4,1111122 
LUMCON,ioos:station:LUMCON:102:1,2015-01-06T08:45:00Z,29.1870,-90.6093,61.6,1111122 
LUMCON,ioos:station:LUMCON:102:1,2015-01-06T09:45:00Z,29.1870,-90.6093,66.5,1111122 
LUMCON,ioos:station:LUMCON:102:1,2015-01-06T10:45:00Z,29.1870,-90.6093,66.5,1111122 
LUMCON,ioos:station:LUMCON:102:1,2015-01-06T11:45:00Z,29.1870,-90.6093,65.9,1111122 
LUMCON,ioos:station:LUMCON:102:1,2015-01-06T12:45:00Z,29.1870,-90.6093,67.7,1111122 
LUMCON,ioos:station:LUMCON:102:1,2015-01-06T13:45:00Z,29.1870,-90.6093,67.1,1111122 
LUMCON,ioos:station:LUMCON:102:1,2015-01-06T14:45:00Z,29.1870,-90.6093,57.2,1111122 
LUMCON,ioos:station:LUMCON:102:1,2015-01-06T15:45:00Z,29.1870,-90.6093,55.0,1111122 
LUMCON,ioos:station:LUMCON:102:1,2015-01-06T16:45:00Z,29.1870,-90.6093,49.8,1111122 
LUMCON,ioos:station:LUMCON:102:1,2015-01-06T17:45:00Z,29.1870,-90.6093,48.2,1111122 
LUMCON,ioos:station:LUMCON:102:1,2015-01-06T18:45:00Z,29.1870,-90.6093,55.7,1111122 
LUMCON,ioos:station:LUMCON:102:1,2015-01-06T19:45:00Z,29.1870,-90.6093,69.0,1111122 
LUMCON,ioos:station:LUMCON:102:1,2015-01-06T20:45:00Z,29.1870,-90.6093,72.9,1111122 
LUMCON,ioos:station:LUMCON:102:1,2015-01-06T21:45:00Z,29.1870,-90.6093,77.1,1111122 
LUMCON,ioos:station:LUMCON:102:1,2015-01-06T22:45:00Z,29.1870,-90.6093,80.4,1111122 
LUMCON,ioos:station:LUMCON:102:1,2015-01-06T23:45:00Z,29.1870,-90.6093,83.7,1111122 
LUMCON,ioos:station:LUMCON:102:1,2015-01-07T00:45:00Z,29.1870,-90.6093,61.8,1111122 
LUMCON,ioos:station:LUMCON:102:1,2015-01-07T01:45:00Z,29.1870,-90.6093,48.6,1111122 
LUMCON,ioos:station:LUMCON:102:1,2015-01-07T02:45:00Z,29.1870,-90.6093,55.4,1111122 
LUMCON,ioos:station:LUMCON:102:1,2015-01-07T03:45:00Z,29.1870,-90.6093,67.0,1111122 
LUMCON,ioos:station:LUMCON:102:1,2015-01-07T04:45:00Z,29.1870,-90.6093,72.5,1111122 
LUMCON,ioos:station:LUMCON:102:1,2015-01-07T05:45:00Z,29.1870,-90.6093,66.4,1111122 
LUMCON,ioos:station:LUMCON:102:1,2015-01-07T06:45:00Z,29.1870,-90.6093,66.0,1111122 
LUMCON,ioos:station:LUMCON:102:1,2015-01-07T07:45:00Z,29.1870,-90.6093,64.6,1111122 
LUMCON,ioos:station:LUMCON:102:1,2015-01-07T08:45:00Z,29.1870,-90.6093,70.6,1111122 
LUMCON,ioos:station:LUMCON:102:1,2015-01-07T09:45:00Z,29.1870,-90.6093,72.8,1111122 
LUMCON,ioos:station:LUMCON:102:1,2015-01-07T10:45:00Z,29.1870,-90.6093,67.5,1111122 
LUMCON,ioos:station:LUMCON:102:1,2015-01-07T11:15:00Z,29.1870,-90.6093,60.4,1111122 
LUMCON,ioos:station:LUMCON:102:1,2015-01-07T12:45:00Z,29.1870,-90.6093,55.0,1111122 
LUMCON,ioos:station:LUMCON:102:1,2015-01-07T13:45:00Z,29.1870,-90.6093,54.9,1111122 
LUMCON,ioos:station:LUMCON:102:1,2015-01-07T14:45:00Z,29.1870,-90.6093,46.3,1111122 
LUMCON,ioos:station:LUMCON:102:1,2015-01-07T15:45:00Z,29.1870,-90.6093,42.4,1111122 
LUMCON,ioos:station:LUMCON:102:1,2015-01-07T16:45:00Z,29.1870,-90.6093,39.6,1111122 
LUMCON,ioos:station:LUMCON:102:1,2015-01-07T17:45:00Z,29.1870,-90.6093,41.9,1111122 
LUMCON,ioos:station:LUMCON:102:1,2015-01-07T18:45:00Z,29.1870,-90.6093,41.3,1111122 
LUMCON,ioos:station:LUMCON:102:1,2015-01-07T19:45:00Z,29.1870,-90.6093,46.2,1111122 
LUMCON,ioos:station:LUMCON:102:1,2015-01-07T20:45:00Z,29.1870,-90.6093,48.8,1111122 
LUMCON,ioos:station:LUMCON:102:1,2015-01-07T21:45:00Z,29.1870,-90.6093,54.1,1111122 
LUMCON,ioos:station:LUMCON:102:1,2015-01-07T22:45:00Z,29.1870,-90.6093,57.9,1111122 
LUMCON,ioos:station:LUMCON:102:1,2015-01-07T23:45:00Z,29.1870,-90.6093,55.7,1111122 
LUMCON,ioos:station:LUMCON:102:1,2015-01-08T00:45:00Z,29.1870,-90.6093,57.0,1111122 
LUMCON,ioos:station:LUMCON:102:1,2015-01-08T01:45:00Z,29.1870,-90.6093,62.9,1111122 
LUMCON,ioos:station:LUMCON:102:1,2015-01-08T02:45:00Z,29.1870,-90.6093,57.4,1111122 
LUMCON,ioos:station:LUMCON:102:1,2015-01-08T03:45:00Z,29.1870,-90.6093,52.9,1111122 
LUMCON,ioos:station:LUMCON:102:1,2015-01-08T04:45:00Z,29.1870,-90.6093,43.3,1111122 
LUMCON,ioos:station:LUMCON:102:1,2015-01-08T05:45:00Z,29.1870,-90.6093,53.2,1111122 
LUMCON,ioos:station:LUMCON:102:1,2015-01-08T06:45:00Z,29.1870,-90.6093,53.7,1111122 
LUMCON,ioos:station:LUMCON:102:1,2015-01-08T07:45:00Z,29.1870,-90.6093,47.1,1111122 
LUMCON,ioos:station:LUMCON:102:1,2015-01-08T08:45:00Z,29.1870,-90.6093,51.6,1111122 
LUMCON,ioos:station:LUMCON:102:1,2015-01-08T09:45:00Z,29.1870,-90.6093,56.0,1111122 
LUMCON,ioos:station:LUMCON:102:1,2015-01-08T10:45:00Z,29.1870,-90.6093,59.7,1111122 
LUMCON,ioos:station:LUMCON:102:1,2015-01-08T11:45:00Z,29.1870,-90.6093,65.2,1111122 
LUMCON,ioos:station:LUMCON:102:1,2015-01-08T12:45:00Z,29.1870,-90.6093,62.8,1111122 
LUMCON,ioos:station:LUMCON:102:1,2015-01-08T13:45:00Z,29.1870,-90.6093,63.5,1111122 
LUMCON,ioos:station:LUMCON:102:1,2015-01-08T14:45:00Z,29.1870,-90.6093,64.6,1111122 
LUMCON,ioos:station:LUMCON:102:1,2015-01-08T15:45:00Z,29.1870,-90.6093,66.2,1111122 
LUMCON,ioos:station:LUMCON:102:1,2015-01-08T16:45:00Z,29.1870,-90.6093,70.3,1111122 
LUMCON,ioos:station:LUMCON:102:1,2015-01-08T17:45:00Z,29.1870,-90.6093,63.4,1111122 
LUMCON,ioos:station:LUMCON:102:1,2015-01-08T18:45:00Z,29.1870,-90.6093,66.8,1111122 
LUMCON,ioos:station:LUMCON:102:1,2015-01-08T19:45:00Z,29.1870,-90.6093,70.3,1111122 
LUMCON,ioos:station:LUMCON:102:1,2015-01-08T20:45:00Z,29.1870,-90.6093,70.4,1111122 
LUMCON,ioos:station:LUMCON:102:1,2015-01-08T21:45:00Z,29.1870,-90.6093,73.5,1111122 
LUMCON,ioos:station:LUMCON:102:1,2015-01-08T22:45:00Z,29.1870,-90.6093,79.5,1111122 
LUMCON,ioos:station:LUMCON:102:1,2015-01-08T23:45:00Z,29.1870,-90.6093,82.3,1111122 
LUMCON,ioos:station:LUMCON:102:1,2015-01-09T00:45:00Z,29.1870,-90.6093,81.9,1111122 
LUMCON,ioos:station:LUMCON:102:1,2015-01-09T01:45:00Z,29.1870,-90.6093,79.8,1111122 
LUMCON,ioos:station:LUMCON:102:1,2015-01-09T02:45:00Z,29.1870,-90.6093,80.5,1111122 
LUMCON,ioos:station:LUMCON:102:1,2015-01-09T03:45:00Z,29.1870,-90.6093,80.4,1111122 
LUMCON,ioos:station:LUMCON:102:1,2015-01-09T04:45:00Z,29.1870,-90.6093,80.5,1111122 
LUMCON,ioos:station:LUMCON:102:1,2015-01-09T05:45:00Z,29.1870,-90.6093,79.4,1111122 
LUMCON,ioos:station:LUMCON:102:1,2015-01-09T06:45:00Z,29.1870,-90.6093,77.3,1111122 
LUMCON,ioos:station:LUMCON:102:1,2015-01-09T07:45:00Z,29.1870,-90.6093,69.3,1111122 
LUMCON,ioos:station:LUMCON:102:1,2015-01-09T08:45:00Z,29.1870,-90.6093,63.0,1111122 
LUMCON,ioos:station:LUMCON:102:1,2015-01-09T09:45:00Z,29.1870,-90.6093,65.8,1111122 
LUMCON,ioos:station:LUMCON:102:1,2015-01-09T10:45:00Z,29.1870,-90.6093,62.1,1111122 
LUMCON,ioos:station:LUMCON:102:1,2015-01-09T11:45:00Z,29.1870,-90.6093,53.1,1111122 
LUMCON,ioos:station:LUMCON:102:1,2015-01-09T12:45:00Z,29.1870,-90.6093,51.3,1111122 
LUMCON,ioos:station:LUMCON:102:1,2015-01-09T13:45:00Z,29.1870,-90.6093,50.9,1111122 
LUMCON,ioos:station:LUMCON:102:1,2015-01-09T14:45:00Z,29.1870,-90.6093,45.0,1111122 
LUMCON,ioos:station:LUMCON:102:1,2015-01-09T15:45:00Z,29.1870,-90.6093,45.0,1111122 
LUMCON,ioos:station:LUMCON:102:1,2015-01-09T16:45:00Z,29.1870,-90.6093,49.8,1111122 
LUMCON,ioos:station:LUMCON:102:1,2015-01-09T17:45:00Z,29.1870,-90.6093,45.7,1111122 
LUMCON,ioos:station:LUMCON:102:1,2015-01-09T18:45:00Z,29.1870,-90.6093,52.0,1111122 
LUMCON,ioos:station:LUMCON:102:1,2015-01-09T19:45:00Z,29.1870,-90.6093,60.5,1111122 
LUMCON,ioos:station:LUMCON:102:1,2015-01-09T20:45:00Z,29.1870,-90.6093,70.0,1111122 
LUMCON,ioos:station:LUMCON:102:1,2015-01-09T21:45:00Z,29.1870,-90.6093,67.3,1111122 
LUMCON,ioos:station:LUMCON:102:1,2015-01-09T22:45:00Z,29.1870,-90.6093,67.4,1111122 
LUMCON,ioos:station:LUMCON:102:1,2015-01-09T23:45:00Z,29.1870,-90.6093,70.3,1111122 
LUMCON,ioos:station:LUMCON:102:1,2015-01-10T00:45:00Z,29.1870,-90.6093,52.8,1111122 
LUMCON,ioos:station:LUMCON:102:1,2015-01-10T01:45:00Z,29.1870,-90.6093,49.5,1111122 
LUMCON,ioos:station:LUMCON:102:1,2015-01-10T02:45:00Z,29.1870,-90.6093,55.8,1111122 
LUMCON,ioos:station:LUMCON:102:1,2015-01-10T03:45:00Z,29.1870,-90.6093,49.4,1111122 
LUMCON,ioos:station:LUMCON:102:1,2015-01-10T04:45:00Z,29.1870,-90.6093,56.7,1111122 
LUMCON,ioos:station:LUMCON:102:1,2015-01-10T05:45:00Z,29.1870,-90.6093,59.3,1111122 
LUMCON,ioos:station:LUMCON:102:1,2015-01-10T06:45:00Z,29.1870,-90.6093,64.7,1111122 
LUMCON,ioos:station:LUMCON:102:1,2015-01-10T07:45:00Z,29.1870,-90.6093,62.6,1111122 
LUMCON,ioos:station:LUMCON:102:1,2015-01-10T08:45:00Z,29.1870,-90.6093,64.9,1111122 
LUMCON,ioos:station:LUMCON:102:1,2015-01-10T09:45:00Z,29.1870,-90.6093,66.8,1111122 
LUMCON,ioos:station:LUMCON:102:1,2015-01-10T10:45:00Z,29.1870,-90.6093,68.0,1111122 
LUMCON,ioos:station:LUMCON:102:1,2015-01-10T11:45:00Z,29.1870,-90.6093,67.0,1111122 
LUMCON,ioos:station:LUMCON:102:1,2015-01-10T12:45:00Z,29.1870,-90.6093,68.0,1111122 
LUMCON,ioos:station:LUMCON:102:1,2015-01-10T13:45:00Z,29.1870,-90.6093,66.6,1111122 
LUMCON,ioos:station:LUMCON:102:1,2015-01-10T14:45:00Z,29.1870,-90.6093,67.4,1111122 
LUMCON,ioos:station:LUMCON:102:1,2015-01-10T15:45:00Z,29.1870,-90.6093,69.1,1111122 
LUMCON,ioos:station:LUMCON:102:1,2015-01-10T16:45:00Z,29.1870,-90.6093,68.3,1111122 
LUMCON,ioos:station:LUMCON:102:1,2015-01-10T17:45:00Z,29.1870,-90.6093,69.6,1111122 
LUMCON,ioos:station:LUMCON:102:1,2015-01-10T18:45:00Z,29.1870,-90.6093,69.8,1111122 
LUMCON,ioos:station:LUMCON:102:1,2015-01-10T20:45:00Z,29.1870,-90.6093,67.9,1111122 
LUMCON,ioos:station:LUMCON:102:1,2015-01-10T21:45:00Z,29.1870,-90.6093,61.4,1111122 
LUMCON,ioos:station:LUMCON:102:1,2015-01-10T22:45:00Z,29.1870,-90.6093,56.5,1111122 
LUMCON,ioos:station:LUMCON:102:1,2015-01-10T23:45:00Z,29.1870,-90.6093,58.6,1111122 
LUMCON,ioos:station:LUMCON:102:1,2015-01-11T00:45:00Z,29.1870,-90.6093,63.3,1111122 
LUMCON,ioos:station:LUMCON:102:1,2015-01-11T01:45:00Z,29.1870,-90.6093,61.6,1111122 
LUMCON,ioos:station:LUMCON:102:1,2015-01-11T02:45:00Z,29.1870,-90.6093,63.6,1111122 
LUMCON,ioos:station:LUMCON:102:1,2015-01-11T03:45:00Z,29.1870,-90.6093,64.7,1111122 
LUMCON,ioos:station:LUMCON:102:1,2015-01-11T04:45:00Z,29.1870,-90.6093,67.8,1111122 
LUMCON,ioos:station:LUMCON:102:1,2015-01-11T05:45:00Z,29.1870,-90.6093,71.1,1111122 
LUMCON,ioos:station:LUMCON:102:1,2015-01-11T08:45:00Z,29.1870,-90.6093,80.2,1111122 
LUMCON,ioos:station:LUMCON:102:1,2015-01-12T00:45:00Z,29.1870,-90.6093,91.9,1111122 
LUMCON,ioos:station:LUMCON:102:1,2015-01-12T01:45:00Z,29.1870,-90.6093,92.0,1111122 
LUMCON,ioos:station:LUMCON:102:1,2015-01-12T04:45:00Z,29.1870,-90.6093,92.3,1111122 
LUMCON,ioos:station:LUMCON:102:1,2015-01-12T06:45:00Z,29.1870,-90.6093,92.2,1111122 
LUMCON,ioos:station:LUMCON:102:1,2015-01-12T08:45:00Z,29.1870,-90.6093,92.6,1111122 
LUMCON,ioos:station:LUMCON:102:1,2015-01-12T09:45:00Z,29.1870,-90.6093,92.0,1111122 
LUMCON,ioos:station:LUMCON:102:1,2015-01-12T10:45:00Z,29.1870,-90.6093,92.3,1111122 
LUMCON,ioos:station:LUMCON:102:1,2015-01-12T11:45:00Z,29.1870,-90.6093,92.5,1111122 
LUMCON,ioos:station:LUMCON:102:1,2015-01-12T12:45:00Z,29.1870,-90.6093,92.3,1111122 
LUMCON,ioos:station:LUMCON:102:1,2015-01-12T14:45:00Z,29.1870,-90.6093,90.4,1111122 
LUMCON,ioos:station:LUMCON:102:1,2015-01-12T15:45:00Z,29.1870,-90.6093,91.6,1111122 
LUMCON,ioos:station:LUMCON:102:1,2015-01-12T17:45:00Z,29.1870,-90.6093,90.3,1111122 
LUMCON,ioos:station:LUMCON:102:1,2015-01-12T18:45:00Z,29.1870,-90.6093,82.8,1111122 
LUMCON,ioos:station:LUMCON:102:1,2015-01-12T19:45:00Z,29.1870,-90.6093,86.7,1111122 
LUMCON,ioos:station:LUMCON:102:1,2015-01-12T20:45:00Z,29.1870,-90.6093,88.3,1111122 
LUMCON,ioos:station:LUMCON:102:1,2015-01-12T21:45:00Z,29.1870,-90.6093,88.7,1111122 
LUMCON,ioos:station:LUMCON:102:1,2015-01-12T22:45:00Z,29.1870,-90.6093,83.6,1111122 
LUMCON,ioos:station:LUMCON:102:1,2015-01-12T23:45:00Z,29.1870,-90.6093,84.9,1111122 
LUMCON,ioos:station:LUMCON:102:1,2015-01-13T00:45:00Z,29.1870,-90.6093,86.3,1111122 
LUMCON,ioos:station:LUMCON:102:1,2015-01-13T01:45:00Z,29.1870,-90.6093,83.3,1111122 
LUMCON,ioos:station:LUMCON:102:1,2015-01-13T02:45:00Z,29.1870,-90.6093,83.8,1111122 
LUMCON,ioos:station:LUMCON:102:1,2015-01-13T03:45:00Z,29.1870,-90.6093,81.9,1111122 
LUMCON,ioos:station:LUMCON:102:1,2015-01-13T04:45:00Z,29.1870,-90.6093,82.6,1111122 
LUMCON,ioos:station:LUMCON:102:1,2015-01-13T05:45:00Z,29.1870,-90.6093,83.5,1111122 
LUMCON,ioos:station:LUMCON:102:1,2015-01-13T06:45:00Z,29.1870,-90.6093,83.6,1111122 
LUMCON,ioos:station:LUMCON:102:1,2015-01-13T07:45:00Z,29.1870,-90.6093,83.8,1111122 
LUMCON,ioos:station:LUMCON:102:1,2015-01-13T08:45:00Z,29.1870,-90.6093,82.9,1111122 
LUMCON,ioos:station:LUMCON:102:1,2015-01-13T09:45:00Z,29.1870,-90.6093,84.0,1111122 
LUMCON,ioos:station:LUMCON:102:1,2015-01-13T10:45:00Z,29.1870,-90.6093,85.2,1111122 
LUMCON,ioos:station:LUMCON:102:1,2015-01-13T11:45:00Z,29.1870,-90.6093,84.7,1111122 
LUMCON,ioos:station:LUMCON:102:1,2015-01-13T12:45:00Z,29.1870,-90.6093,80.2,1111122 
LUMCON,ioos:station:LUMCON:102:1,2015-01-13T13:45:00Z,29.1870,-90.6093,77.7,1111122 
LUMCON,ioos:station:LUMCON:102:1,2015-01-13T14:45:00Z,29.1870,-90.6093,74.9,1111122 
LUMCON,ioos:station:LUMCON:102:1,2015-01-13T15:45:00Z,29.1870,-90.6093,75.3,1111122 
LUMCON,ioos:station:LUMCON:102:1,2015-01-13T16:45:00Z,29.1870,-90.6093,73.5,1111122 
LUMCON,ioos:station:LUMCON:102:1,2015-01-13T17:45:00Z,29.1870,-90.6093,74.2,1111122 
LUMCON,ioos:station:LUMCON:102:1,2015-01-13T18:45:00Z,29.1870,-90.6093,77.3,1111122 